Regional Weather Roundup
Issued by NWS

Home | Current Version | Previous Version | Text Only | Print | Product List | Glossary On
Versions: 1 2 3 4 5 6 7 8 9 10 11 12 13 14 15 16 17 18 19 20 21 22 23 24 25 26 27 28 29 30 31 32 33 34 35 36 37 38 39 40 41 42 43 44 45 46 47 48 49 50
872
ASUS44 KLIX 190210
RWRLA
LOUISIANA WEATHER ROUNDUP
NATIONAL WEATHER SERVICE NEW ORLEANS LA
900 PM CDT FRI APR 18 2014

NOTE: "FAIR" INDICATES FEW OR NO CLOUDS BELOW 12,000 FEET WITH NO
      SIGNIFICANT WEATHER AND/OR OBSTRUCTIONS TO VISIBILITY.
      SKY/WX - SKY CONDITION AND SIGNIFICANT WEATHER.
      TMP - AIR TEMPERATURE.    DP   - DEWPOINT TEMPERATURE.
      RH  - RELATIVE HUMIDITY.  PRES - PRESSURE.
      HX  - HEAT INDEX.         WCI  - WIND CHILL INDEX.

*  THESE STATIONS ARE NOT NWS OR FAA STATIONS AND ARE NOT UNDER
   NWS QUALITY CONTROL.

LAZ040-048-061>063-065-066-069-190300-
SOUTHEAST LOUISIANA

CITY           SKY/WX    TMP DP  RH WIND       PRES   REMARKS
N.O. AUDUBON   NOT AVBL
N.O. INTL ARPT PTCLDY    64  56  75 NE12      30.10R
N.O. LAKEFRONT CLEAR     64  57  78 NE17      30.10R
N.O. DOWNTOWN* FAIR      64  52  63 N7        30.10R
SLIDELL        CLEAR     60  54  80 NE3       30.10R
BATON ROUGE    CLEAR     63  59  87 CALM      30.10R
BOOTHVILLE     MOCLDY    62  57  83 N9        30.08R
BELLE CHASSE   PTCLDY    62  54  74 NE9       30.08R
BOGALUSA*        N/A     61  54  78 CALM      30.13R
GALLIANO*      CLEAR     65  58  78 N9        30.09R
NEW ROADS*     FAIR      62  61  96 MISG      30.10S
GONZALES*      FAIR      63  59  86 CALM      30.09R
HAMMOND*       CLEAR     64  54  68 NE3       30.13R
HOUMA*           N/A     65  56  72 NE5       30.09R
PORT FOURCHON* CLEAR     66  59  77 NE13      30.10R

$$

LAZ041-044-053-054-190300-
SOUTHWEST LOUISIANA

CITY           SKY/WX    TMP DP  RH WIND       PRES   REMARKS
LAKE CHARLES   CLEAR     61  57  87 CALM      30.12R
LAFAYETTE      MOCLDY    67  58  72 NE5       30.11R
PATTERSON      MOCLDY    66  61  82 CALM      30.13R
SALT POINT       N/A     71  62  73 CALM      30.09R
NEW IBERIA     PTCLDY    68  59  73 NE8       30.11R
CHENAULT AIRPK NOT AVBL

$$

LAZ027-028-190300-
CENTRAL LOUISIANA

CITY           SKY/WX    TMP DP  RH WIND       PRES   REMARKS
FORT POLK      MOCLDY    65  57  75 N3        30.14R HAZE
ALEXANDRIA INT CLOUDY    66  58  75 N3        30.12R
ALEXANDRIA     MOCLDY    62  58  86 CALM      30.13R

$$

LAZ001-002-190300-
NORTHWEST LOUISIANA

CITY           SKY/WX    TMP DP  RH WIND       PRES   REMARKS
SHREVEPORT     CLOUDY    63  53  70 E3        30.16R
BARKSDALE AFB  CLOUDY    66  53  63 NE2       30.16R
DTN SHREVEPORT CLOUDY    64  53  67 CALM      30.16R

$$

LAZ014-016-190300-
NORTHEAST LOUISIANA

CITY           SKY/WX    TMP DP  RH WIND       PRES   REMARKS
MONROE         CLEAR     63  53  70 CALM      30.14R
TALLULAH       PTCLDY    66  55  67 N5        30.13R

$$




USA.gov is the U.S. government's official web portal to all federal, state and local government web resources and services.